Date,TemperatureHighF,TemperatureAvgF,TemperatureLowF,DewpointHighF,DewpointAvgF,DewpointLowF,HumidityHigh,HumidityAvg,HumidityLow,PressureMaxIn,PressureMinIn,WindSpeedMaxMPH,WindSpeedAvgMPH,GustSpeedMaxMPH,PrecipitationSumIn
2013-1-1,44.8,40.4,36.7,33.7,30.3,25.7,76,67,60,30.00,29.88,4,0,5,0.00
2013-1-2,38.2,33.1,27.5,31.0,22.2,18.0,76,64,48,30.22,29.97,10,0,10,0.00
2013-1-3,38.6,29.7,22.8,22.5,20.4,17.8,92,69,49,30.24,30.13,3,0,3,0.00
2013-1-4,42.9,34.7,28.0,27.3,23.7,21.4,78,65,50,30.19,30.07,9,0,11,0.00
2013-1-5,44.1,36.8,30.2,33.3,26.2,22.1,85,66,51,30.36,30.12,5,0,5,0.00
2013-1-6,51.3,42.6,30.7,35.5,32.3,29.1,96,69,48,30.18,30.00,4,0,6,0.00
2013-1-7,46.2,40.7,29.4,33.6,29.7,24.8,84,65,53,30.41,30.12,7,0,7,0.00
2013-1-8,52.6,39.1,26.7,37.5,32.0,23.8,93,77,52,30.41,30.34,4,0,6,0.00
2013-1-9,51.8,41.7,30.0,43.7,36.7,28.6,97,83,57,30.37,30.20,4,0,6,0.00
2013-1-10,53.7,45.7,37.7,35.3,32.1,28.1,74,59,45,30.57,30.34,7,0,7,0.00
2013-1-11,44.8,40.2,33.6,42.5,36.6,30.2,99,87,74,30.48,30.07,4,0,4,0.11
2013-1-12,56.2,46.9,41.8,50.8,45.2,41.5,100,94,80,30.16,30.08,2,0,3,0.00
2013-1-13,50.2,45.8,42.2,50.2,45.7,41.4,100,100,96,30.12,29.95,4,0,4,0.01
2013-1-14,58.2,52.5,40.9,58.2,49.5,38.1,100,90,65,30.27,29.92,3,0,3,0.15
2013-1-15,40.9,39.2,35.7,40.1,38.6,35.2,99,98,95,30.32,30.12,3,0,4,0.87
2013-1-16,41.3,37.9,35.0,41.3,37.7,34.7,100,99,98,30.14,29.81,6,0,6,0.39
2013-1-17,44.0,40.9,37.5,41.5,36.7,32.5,100,85,67,30.11,29.94,3,0,4,0.01
2013-1-18,37.5,33.5,28.4,33.8,21.1,13.4,87,61,40,30.48,30.00,9,0,11,0.00
2013-1-19,54.6,40.4,29.8,33.8,28.0,19.2,80,62,41,30.41,29.94,7,0,7,0.00
2013-1-20,59.6,46.6,34.9,37.2,28.0,17.2,70,50,30,30.07,29.79,13,0,13,0.00
2013-1-21,41.2,34.9,29.9,33.1,23.0,15.3,76,62,52,30.09,29.78,9,0,12,0.00
2013-1-22,29.8,21.2,16.7,16.2,3.6,-1.5,57,46,36,30.28,29.89,12,1,16,0.00
2013-1-23,25.4,19.5,11.3,9.3,4.7,1.9,75,53,39,30.34,30.14,11,0,12,0.00
2013-1-24,25.8,20.4,15.6,16.6,10.6,4.7,90,67,42,30.50,30.09,13,0,16,0.00
2013-1-25,23.0,18.4,13.3,18.4,11.0,4.7,91,74,50,30.50,30.06,4,0,5,0.00
2013-1-26,32.3,25.6,20.6,23.5,19.7,16.8,91,79,63,30.42,30.07,6,0,6,0.05
2013-1-27,36.6,27.1,16.8,25.2,20.6,14.6,96,78,54,30.59,30.41,4,0,4,0.03
2013-1-28,40.0,34.8,28.3,38.5,32.6,23.4,99,92,79,30.50,30.02,4,0,4,0.04
2013-1-29,65.1,50.0,36.1,55.6,46.3,35.5,100,88,67,30.12,29.96,6,0,6,0.01
2013-1-30,70.8,59.1,46.4,64.1,56.3,45.0,99,91,75,29.97,29.21,12,1,14,0.54
2013-1-31,61.9,43.5,29.1,61.8,31.1,15.7,100,63,39,29.90,29.12,15,2,19,0.43
2013-2-1,31.9,26.9,19.9,26.8,14.3,7.1,93,60,46,30.36,29.80,16,1,17,0.00
2013-2-2,30.9,24.6,16.7,26.0,15.0,7.7,94,68,46,30.37,30.00,4,0,6,0.00
2013-2-3,34.4,28.6,21.7,29.3,25.5,20.2,100,88,73,30.00,29.82,7,0,11,0.02
2013-2-4,35.6,29.9,23.2,25.1,18.4,13.0,80,62,51,30.09,29.88,9,0,10,0.01
2013-2-5,38.1,33.6,29.5,31.1,28.0,23.1,92,80,68,29.92,29.84,2,0,2,0.02
2013-2-6,32.7,32.1,31.2,30.4,29.9,29.0,93,91,91,29.94,29.92,0,0,0,0.00